Radiation Dose at Monitoring Post of Fukushima Daini Nuclear Power Station
Date,Time,MP-1(microSv/h),MP-2(microSv/h),MP-3(microSv/h),MP-4(microSv/h),MP-5(microSv/h),MP-6(microSv/h),MP-7(microSv/h),Wind Direction,Wind Velocity(m/s),Rain
2022/11/29,00:00,0.154,0.137,0.215,0.213,0.214,0.122,0.078,south,9.2,No
2022/11/29,00:10,0.153,0.137,0.217,0.213,0.213,0.121,0.078,south,9.8,No
2022/11/29,00:20,0.153,0.137,0.216,0.212,0.212,0.121,0.078,south,10.3,No
2022/11/29,00:30,0.153,0.138,0.217,0.212,0.214,0.121,0.078,south,10.4,No
2022/11/29,00:40,0.153,0.138,0.216,0.212,0.213,0.121,0.077,south,10.0,No
2022/11/29,00:50,0.154,0.138,0.215,0.213,0.215,0.122,0.077,south,10.9,No
2022/11/29,01:00,0.152,0.137,0.216,0.212,0.212,0.121,0.078,south,9.6,No
2022/11/29,01:10,0.153,0.137,0.216,0.212,0.213,0.121,0.077,south,10.1,No
2022/11/29,01:20,0.153,0.138,0.216,0.212,0.213,0.122,0.078,south,9.5,No
2022/11/29,01:30,0.152,0.137,0.216,0.211,0.214,0.122,0.077,south,9.6,No
2022/11/29,01:40,0.152,0.137,0.215,0.214,0.213,0.122,0.077,south,9.2,No
2022/11/29,01:50,0.152,0.139,0.215,0.212,0.213,0.122,0.078,south,9.8,No
2022/11/29,02:00,0.154,0.137,0.216,0.214,0.212,0.121,0.078,south,10.1,No
2022/11/29,02:10,0.151,0.137,0.215,0.211,0.213,0.122,0.077,south,11.2,No
2022/11/29,02:20,0.154,0.137,0.216,0.213,0.213,0.121,0.077,south,9.2,No
2022/11/29,02:30,0.152,0.137,0.215,0.212,0.213,0.122,0.077,south,9.5,No
2022/11/29,02:40,0.153,0.138,0.216,0.212,0.213,0.121,0.077,south,8.2,No
2022/11/29,02:50,0.152,0.137,0.216,0.212,0.213,0.122,0.077,south,10.6,No
2022/11/29,03:00,0.153,0.138,0.215,0.212,0.214,0.122,0.077,south,11.7,No
2022/11/29,03:10,0.153,0.138,0.217,0.213,0.213,0.121,0.077,south,10.6,No
2022/11/29,03:20,0.153,0.138,0.214,0.212,0.213,0.122,0.077,south,10.3,No
2022/11/29,03:30,0.154,0.136,0.217,0.213,0.212,0.122,0.078,south,9.8,No
2022/11/29,03:40,0.153,0.138,0.216,0.211,0.214,0.122,0.077,south,12.0,No
2022/11/29,03:50,0.153,0.138,0.217,0.212,0.212,0.122,0.077,south,10.0,No
2022/11/29,04:00,0.152,0.137,0.217,0.211,0.213,0.122,0.077,south,11.2,No
2022/11/29,04:10,0.153,0.138,0.216,0.212,0.211,0.122,0.077,south,9.8,No
2022/11/29,04:20,0.152,0.137,0.216,0.212,0.214,0.122,0.078,south,11.7,No
2022/11/29,04:30,0.152,0.137,0.216,0.212,0.212,0.122,0.078,south,10.6,No
2022/11/29,04:40,0.153,0.138,0.217,0.212,0.213,0.121,0.077,south,10.7,No
2022/11/29,04:50,0.152,0.138,0.215,0.212,0.213,0.121,0.077,south,8.8,No
2022/11/29,05:00,0.151,0.138,0.216,0.213,0.215,0.121,0.077,south,8.5,No
2022/11/29,05:10,0.153,0.137,0.217,0.212,0.213,0.121,0.076,south,9.8,No
2022/11/29,05:20,0.152,0.138,0.216,0.212,0.213,0.122,0.077,south-southwest,8.1,No
2022/11/29,05:30,0.153,0.136,0.217,0.212,0.212,0.122,0.078,south,7.0,No
2022/11/29,05:40,0.152,0.138,0.216,0.213,0.212,0.121,0.077,south-southwest,9.0,No
2022/11/29,05:50,0.153,0.137,0.216,0.210,0.214,0.121,0.077,south-southwest,9.6,No
2022/11/29,06:00,0.152,0.138,0.216,0.211,0.212,0.122,0.077,south-southwest,9.2,No
2022/11/29,06:10,0.153,0.138,0.216,0.212,0.214,0.122,0.077,south-southwest,10.1,No
2022/11/29,06:20,0.152,0.138,0.216,0.213,0.213,0.122,0.078,south-southwest,10.7,No
2022/11/29,06:30,0.154,0.137,0.216,0.212,0.214,0.122,0.077,south-southwest,8.7,No
2022/11/29,06:40,0.152,0.138,0.217,0.212,0.212,0.121,0.077,south-southwest,10.1,No
2022/11/29,06:50,0.153,0.138,0.215,0.212,0.214,0.122,0.077,south-southwest,11.5,No
2022/11/29,07:00,0.152,0.137,0.217,0.212,0.212,0.121,0.078,south,8.8,No
2022/11/29,07:10,0.154,0.138,0.216,0.213,0.214,0.121,0.077,south-southwest,7.2,No
2022/11/29,07:20,0.152,0.137,0.217,0.212,0.213,0.122,0.077,southwest,9.6,No
2022/11/29,07:30,0.153,0.139,0.216,0.212,0.214,0.122,0.077,south-southwest,9.6,No
2022/11/29,07:40,0.152,0.138,0.217,0.211,0.212,0.121,0.078,south-southwest,8.1,No
2022/11/29,07:50,0.153,0.139,0.217,0.212,0.215,0.122,0.078,south-southwest,9.8,No
2022/11/29,08:00,0.151,0.136,0.217,0.212,0.212,0.122,0.077,south-southwest,8.2,No
2022/11/29,08:10,0.154,0.137,0.216,0.214,0.212,0.121,0.077,south,7.4,No
2022/11/29,08:20,0.152,0.137,0.217,0.212,0.212,0.122,0.078,south-southwest,8.4,No
2022/11/29,08:30,0.153,0.138,0.216,0.213,0.212,0.121,0.078,south,7.8,Yes
2022/11/29,08:40,0.152,0.137,0.216,0.211,0.214,0.122,0.077,south,9.0,Yes
2022/11/29,08:50,0.153,0.138,0.217,0.212,0.214,0.122,0.077,south,7.3,Yes
2022/11/29,09:00,0.152,0.137,0.216,0.211,0.214,0.122,0.078,south,8.1,Yes
2022/11/29,09:10,0.152,0.138,0.217,0.213,0.212,0.121,0.078,south,9.2,No
2022/11/29,09:20,0.153,0.138,0.216,0.212,0.213,0.121,0.077,south,9.2,Yes
2022/11/29,09:30,0.151,0.137,0.217,0.212,0.213,0.123,0.078,south,6.3,Yes
2022/11/29,09:40,0.154,0.137,0.217,0.213,0.213,0.122,0.078,south-southwest,9.5,Yes
2022/11/29,09:50,0.153,0.138,0.217,0.213,0.213,0.122,0.078,south,8.7,Yes
2022/11/29,10:00,0.153,0.138,0.217,0.214,0.213,0.122,0.078,south,7.0,No
2022/11/29,10:10,0.153,0.138,0.216,0.212,0.213,0.122,0.078,south,8.3,No
2022/11/29,10:20,0.153,0.138,0.218,0.213,0.212,0.123,0.078,south,9.3,No
2022/11/29,10:30,0.154,0.138,0.215,0.211,0.214,0.122,0.077,south,7.5,No
2022/11/29,10:40,0.152,0.137,0.218,0.214,0.212,0.122,0.078,south,7.9,No
2022/11/29,10:50,0.153,0.136,0.215,0.212,0.212,0.122,0.078,south,11.2,No
2022/11/29,11:00,0.154,0.137,0.215,0.211,0.214,0.122,0.078,south,8.6,No
2022/11/29,11:10,0.152,0.139,0.218,0.213,0.213,0.122,0.078,south-southwest,9.0,No
2022/11/29,11:20,0.152,0.138,0.215,0.211,0.211,0.122,0.078,south,9.8,No
2022/11/29,11:30,0.155,0.138,0.217,0.213,0.214,0.122,0.076,south,13.1,No
2022/11/29,11:40,0.153,0.137,0.216,0.213,0.212,0.122,0.078,south-southwest,8.8,No
2022/11/29,11:50,0.153,0.137,0.214,0.211,0.211,0.122,0.078,south,9.0,No
2022/11/29,12:00,0.153,0.138,0.217,0.213,0.214,0.123,0.078,south,9.8,No
2022/11/29,12:10,0.153,0.138,0.216,0.212,0.214,0.122,0.078,south-southwest,10.1,No
2022/11/29,12:20,0.151,0.137,0.216,0.213,0.211,0.122,0.077,south,10.7,No
2022/11/29,12:30,0.154,0.139,0.216,0.215,0.213,0.122,0.077,south,7.1,No
2022/11/29,12:40,0.152,0.137,0.215,0.211,0.213,0.120,0.078,south-southwest,9.8,No
2022/11/29,12:50,0.152,0.138,0.217,0.213,0.211,0.122,0.078,south-southwest,10.3,No
2022/11/29,13:00,0.154,0.138,0.217,0.213,0.214,0.122,0.078,south-southwest,8.7,No
2022/11/29,13:10,0.153,0.137,0.215,0.212,0.213,0.120,0.077,south,9.2,No
2022/11/29,13:20,0.153,0.138,0.218,0.215,0.213,0.122,0.078,south,8.1,No
2022/11/29,13:30,0.153,0.137,0.216,0.211,0.214,0.122,0.078,south,10.3,No
2022/11/29,13:40,0.152,0.138,0.218,0.213,0.212,0.120,0.077,south-southwest,8.1,Yes
2022/11/29,13:50,0.154,0.139,0.217,0.212,0.215,0.122,0.078,south-southwest,10.1,Yes
2022/11/29,14:00,0.153,0.137,0.216,0.212,0.213,0.122,0.077,south,8.4,No
2022/11/29,14:10,0.152,0.139,0.217,0.215,0.213,0.122,0.077,south-southwest,9.2,No
2022/11/29,14:20,0.155,0.139,0.215,0.212,0.215,0.122,0.078,south-southwest,7.8,No
2022/11/29,14:30,0.152,0.139,0.219,0.213,0.212,0.122,0.078,south,7.5,No
2022/11/29,14:40,0.153,0.139,0.216,0.211,0.214,0.121,0.078,south,9.5,Yes
2022/11/29,14:50,0.153,0.137,0.216,0.214,0.212,0.122,0.078,south,9.6,No
2022/11/29,15:00,0.152,0.138,0.215,0.213,0.212,0.121,0.078,south,9.2,No
2022/11/29,15:10,0.154,0.138,0.216,0.211,0.215,0.122,0.077,south,9.2,No
2022/11/29,15:20,0.152,0.138,0.218,0.212,0.211,0.121,0.077,south,10.1,No
2022/11/29,15:30,0.154,0.137,0.215,0.212,0.214,0.122,0.077,south,7.4,No
2022/11/29,15:40,0.154,0.138,0.217,0.213,0.213,0.122,0.078,south,7.8,No
2022/11/29,15:50,0.154,0.137,0.217,0.211,0.213,0.122,0.078,south,7.0,No
2022/11/29,16:00,0.154,0.138,0.217,0.213,0.214,0.123,0.077,south,6.8,Yes
2022/11/29,16:10,0.152,0.138,0.217,0.212,0.213,0.120,0.078,south,7.9,Yes
2022/11/29,16:20,0.154,0.138,0.219,0.212,0.215,0.122,0.077,south,7.3,Yes
2022/11/29,16:30,0.153,0.138,0.216,0.214,0.211,0.122,0.078,south,8.7,Yes
2022/11/29,16:40,0.153,0.137,0.217,0.211,0.214,0.122,0.078,south,8.7,No
2022/11/29,16:50,0.153,0.138,0.216,0.214,0.212,0.123,0.077,south-southwest,9.8,Yes
2022/11/29,17:00,0.153,0.137,0.217,0.213,0.213,0.122,0.078,south-southwest,9.8,Yes
2022/11/29,17:10,0.154,0.140,0.217,0.214,0.213,0.122,0.078,south-southwest,9.2,Yes
2022/11/29,17:20,0.153,0.138,0.218,0.214,0.215,0.124,0.079,south-southwest,9.8,Yes
2022/11/29,17:30,0.156,0.140,0.217,0.215,0.216,0.124,0.080,south-southwest,11.5,Yes
2022/11/29,17:40,0.154,0.139,0.219,0.214,0.214,0.123,0.078,south,10.7,Yes
2022/11/29,17:50,0.157,0.140,0.218,0.215,0.216,0.125,0.080,south,10.4,Yes
2022/11/29,18:00,0.154,0.139,0.219,0.215,0.215,0.124,0.080,south,10.9,Yes
2022/11/29,18:10,0.156,0.139,0.217,0.216,0.215,0.123,0.080,south-southeast,11.2,Yes
2022/11/29,18:20,0.154,0.140,0.219,0.213,0.214,0.124,0.079,south,10.3,Yes
2022/11/29,18:30,0.154,0.140,0.217,0.215,0.213,0.123,0.078,south,11.5,Yes
2022/11/29,18:40,0.154,0.137,0.219,0.213,0.212,0.123,0.079,south,10.7,Yes
2022/11/29,18:50,0.153,0.139,0.215,0.213,0.214,0.123,0.078,south-southeast,10.7,Yes
2022/11/29,19:00,0.154,0.138,0.218,0.212,0.211,0.122,0.077,south,12.5,Yes
2022/11/29,19:10,0.153,0.139,0.215,0.214,0.215,0.122,0.077,south,10.6,Yes
2022/11/29,19:20,0.155,0.137,0.217,0.212,0.213,0.121,0.078,south,10.1,Yes
2022/11/29,19:30,0.152,0.138,0.216,0.212,0.214,0.123,0.078,south-southeast,11.2,Yes
2022/11/29,19:40,0.153,0.137,0.217,0.213,0.212,0.122,0.077,south,10.3,Yes
2022/11/29,19:50,0.152,0.139,0.215,0.214,0.214,0.122,0.077,south,10.1,Yes
2022/11/29,20:00,0.154,0.138,0.218,0.213,0.214,0.122,0.078,south,10.7,Yes
2022/11/29,20:10,0.154,0.138,0.216,0.213,0.211,0.122,0.077,south,11.4,Yes
2022/11/29,20:20,0.153,0.138,0.218,0.214,0.213,0.123,0.078,south-southeast,10.3,Yes
2022/11/29,20:30,0.155,0.138,0.217,0.213,0.212,0.123,0.077,south,7.9,Yes
2022/11/29,20:40,0.152,0.139,0.216,0.214,0.215,0.122,0.077,south,10.1,Yes
2022/11/29,20:50,0.154,0.137,0.217,0.212,0.214,0.122,0.078,south-southeast,8.7,Yes
2022/11/29,21:00,0.154,0.138,0.216,0.213,0.214,0.122,0.078,south,9.2,Yes
2022/11/29,21:10,0.154,0.138,0.217,0.212,0.213,0.122,0.078,south,9.2,Yes
2022/11/29,21:20,0.154,0.139,0.217,0.215,0.214,0.121,0.077,south-southeast,9.0,Yes
2022/11/29,21:30,0.152,0.139,0.218,0.212,0.213,0.123,0.078,south-southeast,8.1,Yes
2022/11/29,21:40,0.154,0.141,0.218,0.215,0.214,0.123,0.080,south,8.7,Yes
2022/11/29,21:50,0.157,0.141,0.221,0.217,0.217,0.126,0.082,south,7.8,Yes
2022/11/29,22:00,0.158,0.143,0.220,0.217,0.216,0.126,0.082,south,8.1,Yes
2022/11/29,22:10,0.158,0.143,0.221,0.219,0.218,0.128,0.083,south,9.3,Yes
2022/11/29,22:20,0.159,0.143,0.223,0.220,0.217,0.129,0.084,south,7.8,Yes
2022/11/29,22:30,0.159,0.143,0.221,0.218,0.219,0.128,0.085,south,7.1,Yes
2022/11/29,22:40,0.161,0.147,0.223,0.221,0.219,0.130,0.086,south,7.8,Yes
2022/11/29,22:50,0.161,0.146,0.223,0.220,0.221,0.130,0.086,south,8.6,Yes
2022/11/29,23:00,0.162,0.146,0.225,0.221,0.220,0.132,0.086,south,6.0,Yes
2022/11/29,23:10,0.160,0.145,0.224,0.219,0.220,0.130,0.086,south,5.3,Yes
2022/11/29,23:20,0.160,0.145,0.223,0.219,0.218,0.130,0.085,south,5.8,Yes
2022/11/29,23:30,0.158,0.144,0.219,0.219,0.218,0.127,0.084,south,5.7,Yes
2022/11/29,23:40,0.158,0.143,0.220,0.218,0.216,0.127,0.083,south,4.9,Yes
2022/11/29,23:50,0.157,0.143,0.220,0.216,0.217,0.127,0.084,south,4.2,Yes
